Location: ???????????
(38.2661°N, 23.2350°E)
Time: 16:28:24
(UTC+00:00)

Okean 1-7 - Pass Details

Date: 25 September 2023
Orbit: 582 x 609 km, 82.5° (Epoch: 02 December)

Event Time Altitude Azimuth Distance (km) Brightness Sun altitude
Rises 18:10:32 0° 345° (NNW) 2,860 6.9 -22.2°
Reaches altitude 10° 18:12:49 10° 339° (NNW) 1,957 6.1 -22.7°
Maximum altitude 18:16:55 43° 268° (W) 853 4.1 -23.4°
Drops below altitude 10° 18:21:02 10° 196° (SSW) 1,957 5.6 -24.2°
Enters shadow 18:21:04 10° 196° (SSW) 1,971 5.6 -24.2°
